• In Hungary
  • List of Countries
  • For 7 days
  • Water Temperature
  • Satellite Maps
  • Weather Map
  • News
  • Weather Widgets
  • user-avatar
    Login

    Hourly Weather Wieloglowy

    Today, 25 November, Saturday

    Time Temperature Precipitation Wind Pressure Humidity
    00:00 +4°C° 0 mm 4 mps 751 mmHg 92%
    01:00 +3°C° 0 mm 4 mps 751 mmHg 95%
    02:00 +3°C° 0 mm 4 mps 751 mmHg 95%
    03:00 +3°C° 0 mm 3 mps 751 mmHg 96%
    04:00 +3°C° 0 mm 3 mps 751 mmHg 96%
    05:00 +3°C° 0 mm 3 mps 751 mmHg 95%
    06:00 +4°C° 0 mm 2 mps 751 mmHg 95%
    07:00 +4°C° 0 mm 2 mps 751 mmHg 94%
    08:00 +4°C° 0.2 mm 2 mps 750 mmHg 93%
    09:00 +4°C° 0.2 mm 2 mps 750 mmHg 91%
    10:00 +5°C° 0.2 mm 2 mps 750 mmHg 89%
    11:00 +5°C° 0.7 mm 2 mps 749 mmHg 90%
    12:00 +5°C° 0.7 mm 2 mps 749 mmHg 90%
    13:00 +5°C° 0.7 mm 2 mps 748 mmHg 90%
    14:00 +5°C° 1.2 mm 2 mps 748 mmHg 91%
    15:00 +4°C° 1.2 mm 3 mps 747 mmHg 92%
    16:00 +4°C° 1.2 mm 4 mps 747 mmHg 93%
    17:00 +4°C° 1.3 mm 4 mps 747 mmHg 93%
    18:00 +4°C° 1.3 mm 4 mps 746 mmHg 93%
    19:00 +3°C° 1.3 mm 5 mps 746 mmHg 93%
    20:00 +3°C° 1.2 mm 5 mps 746 mmHg 91%
    21:00 +3°C° 1.2 mm 6 mps 746 mmHg 89%
    22:00 +3°C° 1.2 mm 7 mps 746 mmHg 87%
    23:00 +3°C° 0.5 mm 6 mps 747 mmHg 84%

    Tomorrow, 26 November, Sunday

    Time Temperature Precipitation Wind Pressure Humidity
    00:00 +3°C° 0.5 mm 5 mps 748 mmHg 82%
    01:00 +3°C° 0.5 mm 5 mps 748 mmHg 80%
    02:00 +2°C° 0.1 mm 5 mps 749 mmHg 82%
    03:00 +2°C° 0.1 mm 5 mps 750 mmHg 84%
    04:00 +2°C° 0.1 mm 5 mps 750 mmHg 87%
    05:00 +2°C° 0 mm 5 mps 751 mmHg 87%
    06:00 +1°C° 0 mm 6 mps 751 mmHg 88%
    07:00 +1°C° 0 mm 6 mps 752 mmHg 88%
    08:00 +1°C° 0 mm 6 mps 752 mmHg 86%
    09:00 0°C° 0 mm 7 mps 752 mmHg 84%
    10:00 0°C° 0 mm 7 mps 752 mmHg 82%
    11:00 0°C° 0 mm 7 mps 753 mmHg 79%
    12:00 +1°C° 0 mm 8 mps 753 mmHg 76%
    13:00 +1°C° 0 mm 8 mps 753 mmHg 73%
    14:00 +1°C° 0 mm 8 mps 753 mmHg 75%
    15:00 +1°C° 0 mm 8 mps 753 mmHg 76%
    16:00 +1°C° 0 mm 8 mps 753 mmHg 78%
    17:00 +1°C° 0.1 mm 8 mps 753 mmHg 77%
    18:00 +1°C° 0.1 mm 8 mps 753 mmHg 77%
    19:00 +1°C° 0.1 mm 9 mps 753 mmHg 76%
    20:00 +1°C° 0.4 mm 9 mps 753 mmHg 78%
    21:00 +1°C° 0.4 mm 9 mps 753 mmHg 79%
    22:00 +1°C° 0.4 mm 9 mps 753 mmHg 80%
    23:00 +1°C° 0.1 mm 9 mps 754 mmHg 81%

    Day after tomorrow, 27 November, Monday

    Time Temperature Precipitation Wind Pressure Humidity
    00:00 +1°C° 0.1 mm 9 mps 754 mmHg 81%
    01:00 +1°C° 0.1 mm 9 mps 754 mmHg 81%
    02:00 +1°C° 0.1 mm 9 mps 754 mmHg 82%
    03:00 0°C° 0.1 mm 9 mps 754 mmHg 83%
    04:00 0°C° 0.1 mm 9 mps 754 mmHg 83%
    05:00 0°C° 0.1 mm 9 mps 754 mmHg 84%
    06:00 0°C° 0.1 mm 9 mps 754 mmHg 84%
    07:00 0°C° 0.1 mm 8 mps 755 mmHg 84%
    08:00 0°C° 0.1 mm 8 mps 755 mmHg 83%
    09:00 0°C° 0.1 mm 8 mps 755 mmHg 82%
    10:00 0°C° 0.1 mm 8 mps 755 mmHg 81%
    11:00 0°C° 0 mm 8 mps 755 mmHg 81%
    12:00 0°C° 0 mm 8 mps 755 mmHg 80%
    13:00 0°C° 0 mm 7 mps 755 mmHg 79%
    14:00 0°C° 0 mm 7 mps 755 mmHg 80%
    15:00 0°C° 0 mm 7 mps 755 mmHg 81%
    16:00 0°C° 0 mm 7 mps 754 mmHg 81%
    17:00 0°C° 0 mm 8 mps 754 mmHg 81%
    18:00 -1°C° 0 mm 8 mps 753 mmHg 80%
    19:00 -1°C° 0 mm 9 mps 753 mmHg 80%
    20:00 0°C° 0.2 mm 9 mps 752 mmHg 80%
    21:00 0°C° 0.2 mm 9 mps 752 mmHg 80%
    22:00 0°C° 0.2 mm 9 mps 751 mmHg 80%
    23:00 0°C° 0.5 mm 9 mps 751 mmHg 80%

    28 November, Tuesday

    Time Temperature Precipitation Wind Pressure Humidity
    00:00 0°C° 0.5 mm 9 mps 750 mmHg 81%
    01:00 0°C° 0.5 mm 9 mps 750 mmHg 82%
    02:00 +1°C° 0.4 mm 9 mps 750 mmHg 83%
    03:00 +1°C° 0.4 mm 9 mps 749 mmHg 83%
    04:00 +1°C° 0.4 mm 8 mps 749 mmHg 84%
    05:00 +1°C° 0.1 mm 8 mps 749 mmHg 84%
    06:00 +1°C° 0.1 mm 8 mps 749 mmHg 85%
    07:00 +1°C° 0.1 mm 8 mps 748 mmHg 85%
    08:00 +1°C° 0.2 mm 8 mps 748 mmHg 83%
    09:00 +1°C° 0.2 mm 8 mps 748 mmHg 81%
    10:00 +1°C° 0.2 mm 8 mps 748 mmHg 80%
    11:00 +1°C° 0.3 mm 9 mps 747 mmHg 77%
    12:00 +1°C° 0.3 mm 9 mps 747 mmHg 75%
    13:00 +1°C° 0.3 mm 9 mps 746 mmHg 72%
    14:00 +1°C° 0.2 mm 9 mps 746 mmHg 72%
    15:00 +1°C° 0.2 mm 9 mps 745 mmHg 71%
    16:00 +1°C° 0.2 mm 8 mps 745 mmHg 70%
    17:00 +1°C° 0.1 mm 8 mps 745 mmHg 71%
    18:00 +1°C° 0.1 mm 8 mps 745 mmHg 71%
    19:00 +1°C° 0.1 mm 8 mps 744 mmHg 71%
    20:00 0°C° 0.1 mm 8 mps 744 mmHg 72%
    21:00 0°C° 0.1 mm 8 mps 744 mmHg 73%
    22:00 0°C° 0.1 mm 8 mps 744 mmHg 74%
    23:00 0°C° 0 mm 8 mps 744 mmHg 76%

    29 November, Wednesday

    Time Temperature Precipitation Wind Pressure Humidity
    00:00 0°C° 0 mm 8 mps 744 mmHg 77%
    01:00 0°C° 0 mm 8 mps 744 mmHg 78%
    02:00 0°C° 0 mm 7 mps 744 mmHg 81%
    03:00 +2°C° 0 mm 7 mps 744 mmHg 83%
    04:00 +2°C° 0 mm 7 mps 744 mmHg 86%
    05:00 +2°C° 0 mm 7 mps 744 mmHg 87%
    06:00 +1°C° 0 mm 6 mps 744 mmHg 88%
    07:00 +1°C° 0 mm 6 mps 744 mmHg 89%
    08:00 +1°C° 0 mm 6 mps 744 mmHg 87%
    09:00 +1°C° 0 mm 6 mps 744 mmHg 86%
    10:00 +2°C° 0 mm 6 mps 745 mmHg 84%
    11:00 +2°C° 0 mm 6 mps 745 mmHg 83%
    12:00 +2°C° 0 mm 6 mps 744 mmHg 82%
    13:00 +2°C° 0 mm 6 mps 744 mmHg 80%
    14:00 +2°C° 0 mm 6 mps 744 mmHg 81%
    15:00 +2°C° 0 mm 6 mps 744 mmHg 81%
    16:00 +1°C° 0 mm 5 mps 744 mmHg 81%
    17:00 +1°C° 0.1 mm 5 mps 744 mmHg 81%
    18:00 +1°C° 0.1 mm 5 mps 744 mmHg 80%
    19:00 +1°C° 0.1 mm 5 mps 744 mmHg 80%
    20:00 +1°C° 0 mm 5 mps 744 mmHg 80%
    21:00 +1°C° 0 mm 5 mps 744 mmHg 80%
    22:00 0°C° 0 mm 5 mps 744 mmHg 79%
    23:00 0°C° 0 mm 5 mps 744 mmHg 81%

    30 November, Thursday

    Time Temperature Precipitation Wind Pressure Humidity
    00:00 0°C° 0 mm 5 mps 744 mmHg 83%
    01:00 -1°C° 0 mm 5 mps 744 mmHg 85%
    02:00 -1°C° 0 mm 5 mps 744 mmHg 86%
    03:00 -1°C° 0 mm 5 mps 744 mmHg 87%
    04:00 -2°C° 0 mm 5 mps 743 mmHg 88%
    05:00 -2°C° 0 mm 5 mps 743 mmHg 88%
    06:00 -2°C° 0 mm 5 mps 744 mmHg 87%
    07:00 -2°C° 0 mm 5 mps 744 mmHg 87%
    08:00 -2°C° 0 mm 5 mps 744 mmHg 86%
    09:00 -1°C° 0 mm 5 mps 744 mmHg 84%
    10:00 -1°C° 0 mm 5 mps 744 mmHg 83%
    11:00 0°C° 0 mm 5 mps 744 mmHg 83%
    12:00 0°C° 0 mm 4 mps 744 mmHg 82%
    13:00 +1°C° 0 mm 4 mps 744 mmHg 81%
    14:00 0°C° 0.1 mm 4 mps 744 mmHg 83%
    15:00 0°C° 0.1 mm 4 mps 744 mmHg 85%
    16:00 0°C° 0.1 mm 4 mps 744 mmHg 87%
    17:00 0°C° 0.1 mm 4 mps 744 mmHg 88%
    18:00 -1°C° 0.1 mm 4 mps 745 mmHg 88%
    19:00 -1°C° 0.1 mm 4 mps 745 mmHg 88%
    20:00 -1°C° 0 mm 4 mps 745 mmHg 88%
    21:00 -2°C° 0 mm 4 mps 745 mmHg 88%
    22:00 -2°C° 0 mm 4 mps 745 mmHg 88%
    23:00 -1°C° 0 mm 3 mps 745 mmHg 90%
    Show more